RH
2 4 4 4 4 3 3 4 6 7 11 17 19 19 18 16 17 20 20 21 21 20 20 18 20 22 22 22 22 19 19 18 13 11 10 12 15 16 15 14 12 9 9 8 9 12 14 16 18 17 17 15 15 16 17 16 16 19 20 17 18 23 25 25 27 29 28 28 37 46 45 38 36 39 40 39 38 41 41 39 38 37 36 34 33 32 32 32
3 4 4 4 4 4 5 5 6 9 16 19 18 18 17 18 19 20 21 21 21 21 20 18 19 23 22 21 22 19 19 18 12 9 11 14 16 16 16 15 14 12 10 10 10 12 15 18 18 18 16 15 17 18 21 19 21 27 22 16 19 24 27 27 27 30 31 29 36 44 41 37 35 37 39 36 34 39 40 38 39 39 36 35 34 32 32 32
3 4 4 5 6 6 7 6 8 13 17 16 16 17 17 17 18 18 19 20 19 19 18 18 20 22 20 20 20 18 18 16 12 13 14 14 16 17 17 17 16 15 13 12 12 12 16 19 18 17 15 17 19 18 23 23 23 30 25 17 21 27 28 30 32 34 37 36 37 42 43 41 36 37 40 35 33 37 38 34 36 37 34 34 33 32 32 32
4 6 7 8 9 9 8 7 9 13 15 16 19 20 19 18 18 17 18 18 17 18 19 21 22 20 19 18 18 17 16 14 15 18 17 15 17 18 17 16 15 15 14 14 14 14 16 18 17 16 15 20 23 21 27 29 27 30 30 24 24 29 26 29 36 38 44 42 36 41 44 42 39 40 40 36 34 33 34 32 32 33 30 31 31 29 32 32
8 9 10 10 10 9 8 8 10 14 17 20 21 21 21 20 19 18 18 18 18 20 23 23 21 19 18 17 16 16 16 15 17 20 17 15 17 17 16 15 15 15 14 14 14 14 16 18 16 14 15 22 26 24 28 34 32 33 38 36 32 32 28 33 41 43 49 46 38 41 40 39 40 40 41 39 33 28 30 30 27 28 27 30 30 28 31 32
10 11 11 12 11 10 10 11 15 19 20 21 21 21 21 21 20 20 19 19 21 22 23 21 19 19 18 17 17 16 17 19 21 19 16 16 16 16 16 15 16 15 15 14 14 14 14 17 15 16 23 28 29 28 31 36 33 29 35 40 40 40 36 39 46 47 50 45 40 41 38 39 40 37 41 42 34 28 28 26 24 26 26 28 30 30 31 31
13 14 15 15 15 15 16 18 20 20 20 20 20 21 22 22 21 20 20 20 22 22 21 20 19 19 18 18 18 17 19 23 24 21 18 16 16 16 16 16 16 15 15 13 12 12 12 14 15 18 27 30 29 32 36 37 35 32 35 41 44 46 44 45 50 49 49 43 39 42 38 38 39 37 42 41 32 27 26 24 25 26 26 27 30 31 31 30
18 18 18 18 19 19 20 20 20 20 20 20 21 23 23 22 21 21 21 22 23 22 20 20 20 19 18 17 16 16 23 26 23 22 20 17 16 17 16 16 16 15 15 13 11 11 11 13 13 17 27 31 30 33 37 35 34 38 41 41 44 46 47 50 52 50 47 43 41 41 36 35 37 39 43 37 26 24 24 24 26 28 28 28 29 30 30 30
20 20 20 20 20 20 20 19 19 19 19 21 23 24 23 22 23 24 24 24 23 22 20 21 20 18 18 16 13 17 27 27 22 22 21 19 17 18 17 17 17 15 15 15 13 12 12 13 12 15 25 32 32 36 40 34 32 42 45 42 42 44 48 50 48 47 45 42 41 38 34 35 39 39 37 30 24 25 26 26 28 30 31 29 30 30 30 30
20 20 20 20 20 19 19 19 19 19 20 23 23 23 23 23 24 25 26 24 22 20 20 21 20 19 19 15 14 22 29 26 22 21 20 20 19 19 19 18 17 15 15 15 14 14 12 13 13 12 20 30 36 40 42 38 37 45 47 42 42 42 45 45 42 43 43 40 41 36 32 34 40 40 32 24 24 25 26 27 27 29 31 30 30 30 30 31
19 19 19 19 19 18 18 18 18 20 21 22 22 22 23 23 24 25 26 25 22 19 20 21 20 19 18 17 22 27 27 25 24 22 19 19 18 18 18 17 17 16 14 13 13 14 14 14 13 15 22 28 36 42 43 44 42 44 43 40 41 40 39 40 38 40 39 36 38 38 34 34 42 43 31 24 25 25 26 26 26 27 29 29 29 30 30 31
19 19 19 18 18 18 18 18 18 21 22 22 22 23 23 23 24 24 25 25 23 20 20 20 20 19 16 20 31 31 27 24 23 22 20 19 18 18 17 17 18 17 16 13 13 15 16 16 15 19 26 29 36 40 39 41 40 39 40 37 36 35 35 36 36 37 36 33 36 40 35 33 40 39 26 23 25 24 26 25 24 26 26 27 28 29 30 30
18 18 18 17 18 18 17 17 19 21 21 22 23 23 23 23 23 24 24 23 22 21 20 20 20 18 16 26 35 31 27 26 23 22 20 19 19 18 18 18 17 16 16 14 15 17 17 19 18 20 26 32 40 37 33 36 35 37 40 35 29 27 30 35 36 37 36 34 37 38 31 24 29 30 24 24 25 24 26 24 24 25 25 26 27 28 28 29
17 16 17 17 17 17 17 17 19 21 21 22 22 22 23 23 23 23 23 22 21 21 20 20 20 17 20 31 34 30 29 27 24 22 20 20 20 19 19 18 17 17 17 16 17 18 19 20 18 21 27 32 37 35 36 37 34 37 41 34 28 23 26 35 38 36 33 34 39 38 31 22 19 21 24 25 23 26 28 26 26 26 24 25 27 28 28 28
15 13 14 17 17 16 17 16 18 20 21 21 21 22 22 22 23 22 23 22 21 22 21 21 21 20 25 31 31 30 30 27 26 24 21 21 20 20 20 20 20 19 20 20 19 20 21 19 18 26 32 31 33 35 35 34 32 37 35 27 27 26 27 35 41 40 34 34 39 38 31 25 20 20 25 28 26 27 29 26 27 26 25 27 28 29 28 29
13 12 13 16 17 16 16 17 18 20 20 20 21 22 22 22 22 22 23 23 21 21 20 22 22 23 28 30 29 29 28 27 28 26 24 23 22 24 24 23 24 23 23 23 23 23 20 19 23 31 33 31 34 32 27 26 28 32 30 24 28 29 26 31 41 47 42 37 39 38 34 29 23 22 27 30 27 28 30 28 28 28 29 29 29 30 31 30
12 10 12 16 16 16 16 17 19 19 20 20 21 22 20 20 20 21 22 21 21 20 19 22 21 23 27 28 28 28 28 28 28 28 26 24 24 25 25 25 24 24 24 23 23 23 21 24 29 31 31 34 40 33 24 23 22 26 27 25 30 32 28 28 37 47 47 42 39 38 39 34 24 23 26 27 27 29 32 30 29 30 30 31 31 31 29 28
11 9 12 16 17 16 17 18 19 19 19 20 21 20 20 20 20 21 21 20 20 19 19 21 20 23 28 28 28 29 29 29 28 28 26 25 25 24 23 23 21 22 22 21 22 22 22 27 29 29 29 33 39 34 27 26 26 28 27 25 29 33 32 31 37 46 47 46 44 38 39 35 27 25 25 25 29 32 33 32 32 31 30 32 32 29 25 24
9 9 12 16 17 17 17 18 20 19 19 20 19 20 20 19 19 20 21 19 21 24 24 25 24 26 29 28 27 28 28 28 27 27 26 25 23 22 22 21 19 19 20 22 24 28 30 30 29 30 31 35 42 43 39 37 38 38 35 32 31 31 32 33 39 50 54 50 46 41 39 35 27 25 24 24 29 33 33 32 33 33 32 30 27 24 23 23
7 9 13 16 17 18 18 19 20 19 19 19 18 18 17 18 22 24 22 20 24 26 26 27 26 27 28 27 26 26 26 25 25 25 24 24 22 21 20 19 18 19 28 35 32 32 35 34 35 36 37 43 48 50 51 49 48 46 39 35 35 34 32 34 42 54 58 47 37 38 39 36 31 28 25 25 29 32 32 33 33 33 33 29 24 23 22 23
7 11 14 15 16 18 19 19 19 17 17 17 17 17 15 18 24 26 24 24 24 24 23 24 24 24 24 24 25 24 24 23 22 22 22 22 21 19 18 22 24 23 35 47 40 35 36 33 37 42 46 50 52 54 56 56 52 44 37 35 35 34 32 36 46 51 52 43 32 37 41 36 32 28 26 26 28 29 28 29 30 30 32 29 24 23 22 23
8 12 15 15 16 18 18 18 18 16 16 16 16 16 15 16 19 19 20 23 23 21 21 21 21 22 22 22 22 21 21 22 22 21 21 20 19 20 21 27 31 30 39 44 33 30 33 32 39 49 54 54 55 57 57 57 52 38 34 35 32 34 35 37 48 51 49 43 35 38 43 36 29 26 24 23 23 25 27 29 30 29 30 26 21 21 23 23
9 12 15 14 15 17 17 17 17 16 16 15 14 15 15 16 16 16 16 20 23 19 18 18 19 21 21 22 22 20 20 24 25 22 21 20 19 23 25 30 35 35 39 40 29 22 23 32 47 57 56 51 50 54 54 49 42 34 32 33 30 36 38 34 42 49 47 46 42 43 46 37 29 25 23 25 27 29 32 33 32 29 25 21 19 21 22 23
9 12 14 14 15 16 16 17 17 17 16 14 14 14 16 15 15 15 14 18 22 18 16 17 18 20 21 22 23 21 20 23 26 23 22 22 23 26 29 35 38 33 37 44 40 30 29 42 57 58 54 50 47 50 50 40 32 33 36 35 32 36 39 35 40 46 42 44 46 45 38 27 26 25 21 30 37 35 36 35 30 25 20 17 20 21 22 23
9 12 13 14 15 15 16 16 17 17 16 16 16 16 17 16 16 16 16 22 21 17 18 17 17 20 21 21 22 23 21 22 23 22 23 23 25 31 34 36 32 27 37 47 40 30 35 53 60 51 47 49 45 43 44 38 31 31 34 36 33 34 40 41 43 44 35 34 44 44 30 19 21 20 18 27 32 28 32 35 27 23 21 20 22 22 21 22
8 12 13 13 14 15 15 16 17 17 17 18 17 19 18 17 18 15 19 30 24 17 21 19 17 19 20 19 20 24 24 22 21 21 22 22 24 28 30 34 35 34 43 45 36 31 40 55 57 48 45 46 43 38 40 42 33 28 35 41 41 41 44 46 46 44 33 29 41 46 33 25 22 16 19 30 32 26 27 31 28 24 23 21 21 21 21 22
8 11 13 13 13 14 15 16 16 16 17 17 17 20 18 17 18 13 19 30 21 16 22 18 16 18 19 19 19 23 24 20 20 20 20 22 23 26 27 31 35 42 51 43 30 32 41 46 48 46 44 40 35 33 39 42 31 29 44 49 46 47 48 48 47 43 36 32 40 45 37 32 31 24 27 35 29 22 22 24 24 22 18 17 17 18 18 20
8 9 12 13 12 13 14 15 15 16 16 16 17 18 17 17 17 16 23 25 16 16 21 18 16 17 17 18 18 21 23 22 22 19 20 22 20 23 31 36 36 45 57 41 20 26 37 38 40 40 37 33 31 33 41 42 34 39 52 52 48 50 49 49 47 42 41 36 33 38 36 32 29 23 28 36 27 20 22 20 17 17 18 17 18 17 17 18
8 8 11 12 13 13 13 13 14 15 15 16 17 15 16 16 14 20 28 21 12 16 19 18 19 17 17 20 19 19 20 22 24 19 18 22 20 20 29 38 40 45 53 44 26 28 38 41 44 39 31 30 33 40 46 42 40 52 57 53 53 53 48 46 45 40 41 37 29 33 36 30 21 14 20 28 23 19 22 21 20 22 21 18 17 18 19 18
7 8 9 11 12 12 12 13 13 14 15 15 16 15 15 14 17 26 28 18 14 19 20 19 22 23 26 29 25 23 26 25 24 19 16 19 19 20 26 30 34 35 39 43 35 32 42 51 53 46 38 38 40 49 58 51 50 59 55 48 47 45 43 41 39 38 35 31 31 37 40 33 22 15 14 20 24 23 20 20 23 23 21 18 16 16 18 18
6 8 9 9 10 10 12 12 11 13 14 14 16 14 12 19 27 29 22 15 17 23 23 23 30 32 34 35 27 27 33 29 25 24 22 21 21 25 28 26 28 28 26 31 30 30 42 46 45 47 47 47 45 48 61 63 60 58 48 40 36 31 33 33 32 34 27 22 33 42 42 37 28 19 15 22 33 35 28 26 26 25 24 21 17 15 16 18
6 7 8 8 9 10 12 11 10 11 11 14 15 12 14 25 28 24 24 20 16 22 26 27 35 38 38 35 27 31 38 30 28 32 32 31 28 33 37 33 32 25 17 23 26 25 34 38 37 44 47 47 42 37 46 56 54 49 41 36 30 22 23 25 22 25 20 21 39 44 38 35 27 20 21 26 30 33 35 35 31 28 27 22 17 16 17 19
5 5 6 8 8 10 12 11 9 8 10 13 11 15 27 30 22 23 32 27 18 25 32 34 36 36 35 28 23 34 35 26 28 34 37 34 28 33 41 44 43 27 15 23 27 20 23 31 35 36 39 46 44 31 28 35 36 36 35 34 28 22 26 28 22 24 23 24 38 42 37 35 24 18 24 26 23 27 31 31 26 24 22 18 17 19 19 20
6 5 6 6 6 8 9 9 10 11 12 11 14 28 35 26 21 27 30 25 25 31 34 37 34 28 29 25 25 35 31 25 31 32 31 27 21 25 30 37 43 33 24 25 27 25 20 20 27 31 37 44 45 41 38 33 32 37 40 37 32 26 29 29 24 25 28 31 39 41 39 34 23 20 25 24 23 25 25 23 20 17 16 17 20 21 20 19
9 9 8 6 7 8 8 10 12 13 13 12 24 37 31 22 23 25 26 26 27 30 31 34 30 20 21 24 29 38 30 24 30 27 26 25 22 25 25 29 39 38 31 24 26 32 21 13 26 40 47 47 45 52 55 38 30 42 46 37 35 32 27 29 34 38 44 48 47 43 38 30 22 21 23 24 25 27 28 26 22 20 19 22 24 22 20 20
10 11 10 10 10 9 12 13 13 14 14 17 31 34 26 27 26 24 35 38 31 33 31 26 25 20 20 22 27 37 33 29 31 24 23 28 29 30 30 35 44 44 34 23 23 27 19 15 29 40 48 53 51 55 56 42 30 36 40 35 41 44 34 33 41 46 52 51 40 34 34 28 22 20 20 23 24 24 27 27 26 26 23 22 22 21 21 22
10 11 13 13 11 12 15 12 13 16 12 21 37 34 28 34 34 37 52 50 42 42 30 18 22 24 24 22 21 30 32 28 28 21 18 25 28 30 33 37 47 51 44 32 26 26 25 23 26 32 39 48 56 56 55 54 42 32 33 36 43 49 41 36 39 39 42 41 32 31 38 32 24 22 20 20 18 15 17 20 22 24 19 17 21 22 23 23
10 11 13 16 15 14 13 11 16 16 13 30 48 43 36 39 44 51 56 54 51 45 27 20 25 26 28 24 20 32 37 24 21 22 19 20 24 29 34 36 44 55 54 43 32 30 32 27 24 38 45 42 48 48 43 51 52 44 43 41 39 39 33 30 36 35 34 37 33 33 41 39 29 24 20 17 14 11 11 13 15 16 13 17 22 24 22 21
11 11 12 18 17 15 15 15 15 10 15 38 49 44 41 45 50 54 54 57 56 42 29 28 29 27 29 27 23 33 39 27 21 22 19 20 25 29 35 35 39 53 58 48 38 34 33 26 23 39 48 38 34 33 29 37 49 53 51 45 41 39 33 30 35 35 32 35 36 36 35 29 24 25 21 17 13 11 11 13 14 16 16 20 25 25 22 20
12 11 12 15 15 15 15 12 12 17 32 44 44 43 48 47 48 52 57 61 54 39 32 32 30 27 27 28 28 33 39 37 31 25 22 26 26 27 40 45 39 49 59 53 46 39 32 27 24 28 34 30 24 26 27 27 35 42 43 44 46 44 42 39 38 41 41 35 35 41 37 21 18 24 21 15 13 12 14 18 19 20 21 23 25 25 22 21
11 12 14 12 12 13 9 11 26 43 50 47 40 47 57 52 47 53 60 60 53 45 40 36 33 30 27 26 28 34 39 39 38 32 26 29 24 22 44 58 51 51 53 44 42 41 33 28 30 30 27 22 21 32 40 37 36 37 34 36 39 40 42 39 38 50 58 50 40 41 40 27 20 23 19 14 15 15 19 25 25 24 24 25 24 23 22 23
10 16 16 10 11 10 6 24 50 55 50 47 45 53 63 58 49 52 56 55 54 52 45 43 44 38 31 29 31 39 42 37 38 34 26 28 23 20 43 62 63 59 50 40 46 52 42 33 36 37 28 23 31 45 55 55 50 44 40 40 40 41 41 35 35 45 54 59 56 50 49 38 22 19 20 17 18 20 23 28 29 26 25 25 24 22 23 24
12 16 14 9 10 8 8 29 50 49 50 57 58 57 60 58 49 47 51 53 54 50 41 44 47 39 38 41 38 39 39 32 31 28 25 31 32 37 57 68 66 63 52 43 50 57 49 38 37 36 24 22 33 42 50 59 57 45 41 46 46 45 48 48 45 42 41 46 48 48 53 41 20 18 22 18 18 20 20 24 25 24 24 24 24 25 25 24
11 12 12 11 10 8 15 29 39 46 53 53 49 48 50 54 53 48 50 56 60 55 43 44 46 41 48 55 45 37 37 31 27 27 31 37 42 54 68 70 68 69 58 49 53 53 42 32 32 34 29 26 27 26 31 44 48 35 31 44 54 58 69 69 55 47 45 42 38 42 48 36 17 16 18 15 17 17 17 20 21 21 22 23 25 26 25 25
10 10 9 10 7 9 19 26 32 48 57 48 42 41 41 44 49 50 51 56 64 60 47 45 49 49 56 59 47 42 43 32 25 32 40 42 45 57 70 71 73 75 68 66 70 60 42 33 31 31 34 34 30 26 25 28 33 30 29 46 61 68 72 60 43 43 48 45 41 42 41 29 17 16 16 16 17 17 17 19 19 20 23 25 27 27 26 27
11 15 16 15 9 10 21 23 22 37 50 46 38 36 34 34 38 45 49 49 55 58 52 50 52 49 48 46 37 39 47 43 37 44 51 45 41 55 72 76 74 74 73 77 75 60 47 45 39 32 33 34 31 28 24 24 30 34 37 48 63 74 74 57 45 47 44 43 44 39 36 36 28 20 19 18 17 18 19 18 19 23 26 27 28 27 28 28
13 24 30 27 17 15 23 25 24 31 37 36 35 34 34 35 34 37 41 43 49 54 52 49 48 40 35 35 30 32 43 46 43 47 53 52 51 56 65 73 78 77 79 83 75 57 47 47 48 48 46 41 35 31 28 30 34 36 41 49 56 71 78 65 55 47 37 41 44 32 30 38 31 21 19 20 19 19 19 20 24 27 27 28 28 28 28 27
17 25 28 26 25 29 30 28 31 35 33 37 46 44 36 35 33 31 34 38 42 44 39 34 37 40 41 41 34 30 34 36 39 45 49 53 59 54 50 67 84 82 79 81 74 59 46 44 54 62 57 45 39 36 33 34 36 37 45 50 48 59 74 71 60 48 40 44 44 31 29 33 29 24 22 22 21 21 22 26 27 27 27 28 29 29 28 27
16 21 22 21 29 41 39 33 32 31 32 42 49 44 36 34 33 35 39 36 31 36 35 28 28 41 54 54 40 33 34 32 38 51 50 48 55 51 44 53 67 73 74 71 68 61 44 44 68 80 67 50 40 36 37 40 43 44 46 46 40 43 57 64 57 48 43 44 40 34 35 35 30 28 26 25 26 26 28 28 26 26 29 30 30 29 28 28
11 15 17 17 26 34 33 31 27 25 31 38 37 38 41 39 36 42 48 37 27 31 37 34 33 47 67 65 45 35 37 33 36 47 49 50 54 53 47 43 47 63 72 66 64 59 41 47 75 79 63 49 38 35 38 40 44 44 39 37 35 35 42 52 56 52 51 52 46 41 46 45 36 30 29 29 29 27 26 25 25 29 31 31 31 30 29 31
7 9 10 13 25 31 26 26 27 28 34 36 35 40 41 39 45 51 47 41 39 40 42 44 44 52 67 67 50 41 44 44 46 51 55 58 58 53 49 47 49 58 64 65 67 56 41 46 59 58 52 46 34 32 36 34 38 44 41 37 34 31 34 40 46 49 52 55 50 45 47 42 29 25 27 26 25 23 23 25 29 32 32 32 33 32 32 34
7 9 7 10 25 31 26 27 28 27 31 37 43 47 40 41 56 53 34 33 46 49 50 57 57 52 53 53 46 43 49 56 62 67 73 77 77 71 65 64 65 60 58 66 72 67 57 49 45 49 52 42 31 32 36 36 36 34 33 32 26 22 24 27 30 35 39 41 41 39 35 25 18 22 27 26 25 23 24 28 31 33 33 32 33 33 34 36
Wind_Speed
7 7 6 4 3 3 4 6 7 7 7 6 6 5 4 5 6 6 5 3 1 4 6 7 6 5 7 5 1 3 4 7 7 4 7 9 10 9 8 7 7 7 6 6 5 5 5 6 5 3 1 3 5 6 6 6 4 2 1 1 3 3 3 5 9 6 1 7 13 13 15 12 8 10 12 10 13 13 12 16 18 19 23 20 15 13 12 10
7 6 5 4 3 4 5 7 8 8 7 7 6 5 4 3 4 5 4 3 4 7 9 9 8 8 8 4 3 3 5 6 6 8 10 9 9 9 8 7 6 5 5 4 4 5 6 6 5 3 1 4 6 5 4 5 5 3 0 1 2 2 1 2 6 6 1 7 14 13 14 12 7 9 12 10 11 14 13 15 18 19 20 21 21 18 16 13
6 5 4 3 4 4 6 8 8 8 8 6 5 4 2 2 3 5 5 6 8 10 10 9 9 12 8 4 6 6 7 6 5 10 10 7 8 9 8 7 6 5 4 3 3 4 7 6 4 2 3 5 6 5 4 6 5 3 1 1 3 2 2 2 4 5 2 6 15 13 12 11 7 8 11 9 9 12 14 15 15 19 21 22 24 22 19 16
6 5 4 4 5 6 8 9 9 9 7 5 4 3 1 2 4 5 6 7 7 7 8 9 12 12 5 7 10 10 8 6 7 11 7 6 8 8 7 7 6 5 5 4 3 4 8 6 3 3 5 6 6 5 5 7 4 3 2 2 4 4 3 4 4 3 3 6 13 12 10 10 7 10 11 8 8 10 16 19 18 20 21 21 23 22 20 18
6 6 7 8 9 10 10 10 10 8 6 5 5 3 1 1 2 3 5 4 3 4 5 9 10 5 7 12 12 8 3 2 6 9 6 6 7 8 7 6 5 5 5 5 5 4 7 6 5 4 5 4 4 3 4 6 7 6 3 3 4 4 2 4 5 4 5 8 11 10 10 8 7 11 13 11 9 8 12 18 19 20 19 18 21 22 21 20
9 11 11 12 12 12 11 10 9 8 7 6 4 2 1 1 1 2 3 2 2 2 3 4 5 8 13 13 8 4 3 3 6 8 7 7 6 7 6 5 5 4 3 4 4 2 5 6 5 3 5 4 5 4 3 4 3 4 2 2 2 1 1 5 5 4 7 9 10 10 8 6 7 9 12 16 20 16 13 13 14 15 17 19 21 22 23 23
13 13 13 12 12 11 11 10 9 8 7 5 4 4 4 4 5 4 3 2 2 3 4 6 12 14 13 12 9 10 12 10 10 9 8 6 6 5 4 4 4 3 2 2 2 3 4 6 6 7 6 4 5 5 6 5 3 4 5 2 1 1 2 5 4 6 9 8 9 8 7 7 7 8 7 17 28 26 21 19 17 16 16 19 23 25 26 25
13 12 11 11 10 10 10 10 9 7 6 5 6 7 7 8 9 8 5 4 6 6 6 10 15 16 14 13 13 16 17 13 11 10 8 6 5 4 3 3 3 3 2 2 1 4 5 6 10 9 5 3 4 4 4 6 7 5 5 4 3 3 3 6 5 8 8 6 8 6 7 8 8 7 8 21 30 27 25 24 24 23 20 20 25 27 27 27
11 11 10 9 9 9 9 9 7 5 5 8 10 10 11 13 14 13 11 7 6 7 8 9 10 13 12 10 12 14 14 13 10 9 8 6 5 4 4 3 3 4 3 2 1 3 4 7 10 7 5 7 6 3 0 1 3 4 6 6 6 6 5 6 6 6 6 5 6 6 8 8 8 8 12 23 26 21 22 23 25 27 26 24 26 28 29 29
9 9 8 8 8 8 8 6 5 5 8 11 12 12 13 14 13 13 13 11 7 6 6 5 7 9 7 7 11 11 11 13 11 7 6 6 5 4 3 3 5 7 6 3 2 2 5 7 9 9 11 11 6 4 3 1 5 9 10 9 8 7 5 5 5 5 5 3 3 6 8 8 6 4 10 14 10 8 11 13 16 21 27 29 28 30 30 31
7 7 7 7 7 7 6 5 5 8 11 13 13 13 12 11 11 12 10 12 13 9 7 7 7 7 9 15 19 12 12 15 12 8 6 4 3 2 3 5 6 8 7 1 5 6 6 9 12 10 8 9 9 9 8 8 11 13 12 10 9 6 5 4 4 4 3 1 1 5 9 9 5 5 15 18 12 12 12 13 14 17 23 27 29 31 32 33
6 6 6 6 6 6 5 5 7 11 14 15 13 10 9 9 11 10 8 9 13 17 16 15 15 15 18 25 24 14 14 17 14 12 8 4 3 3 5 5 4 5 5 4 10 9 6 8 9 6 8 11 8 6 8 10 8 7 5 5 5 4 4 4 3 2 2 1 1 4 8 9 9 12 23 21 16 16 15 17 18 19 22 24 27 30 32 34
5 4 3 4 5 5 6 7 10 14 15 13 9 8 8 9 9 8 8 7 10 14 12 12 14 14 17 22 19 14 15 17 15 13 11 8 8 7 6 5 3 4 3 4 8 8 6 5 6 11 15 11 5 6 9 6 3 3 0 0 3 3 3 3 2 1 3 3 1 3 6 6 8 15 20 16 15 14 14 18 19 21 24 25 26 28 30 32
7 6 5 3 5 6 7 9 12 14 13 9 7 7 6 6 8 9 9 9 8 7 7 9 9 9 16 17 13 14 14 13 14 15 14 12 11 11 10 10 10 10 9 9 13 14 14 12 12 16 16 12 10 11 8 3 1 1 2 0 1 2 2 3 2 3 4 3 2 2 5 7 6 9 11 12 15 14 16 19 20 22 24 26 27 28 30 31
8 7 6 4 6 7 8 10 11 13 10 6 5 5 5 6 9 9 9 10 10 10 9 9 8 13 20 15 9 11 11 12 15 16 14 12 13 15 14 15 16 17 16 15 15 15 13 12 15 15 12 12 12 6 3 2 2 1 2 1 1 2 1 3 3 3 3 2 3 4 5 8 10 8 6 12 15 14 18 20 19 22 24 26 28 30 32 32
6 6 5 5 7 8 9 10 10 10 8 4 5 6 6 7 8 9 9 9 10 12 12 13 14 18 18 10 7 8 9 12 14 14 12 12 13 13 13 14 13 12 12 12 10 9 9 10 14 13 8 7 4 0 2 2 1 1 2 1 1 2 2 1 3 1 2 1 4 7 6 8 8 5 4 7 9 11 14 18 20 23 26 29 30 31 33 32
4 4 4 5 7 9 9 9 10 9 7 5 7 9 11 12 11 11 10 10 11 11 14 17 17 19 14 7 7 7 8 9 8 8 8 8 10 9 8 7 7 5 6 9 7 7 8 8 8 8 6 4 1 1 0 2 1 1 1 1 1 2 3 2 1 2 0 3 6 7 8 13 13 11 12 12 12 12 14 19 23 25 26 27 28 30 30 29
3 3 4 7 9 10 10 10 10 7 7 7 10 13 13 12 9 9 10 9 9 5 6 8 6 8 11 8 7 6 6 6 5 5 5 6 6 5 3 2 2 2 5 8 8 8 9 8 4 3 4 4 3 3 1 1 2 1 1 2 1 2 4 4 2 1 0 4 7 7 10 16 19 19 22 21 18 19 20 23 24 24 24 23 25 28 27 25
2 3 5 8 10 11 12 11 9 9 12 14 16 17 15 15 13 13 14 12 8 3 3 8 7 5 6 7 10 11 9 6 5 4 4 5 4 5 6 5 4 5 5 4 8 11 8 5 4 2 3 4 4 3 2 3 3 2 2 2 4 4 5 5 1 1 1 4 8 11 12 16 19 18 21 21 15 15 20 21 21 21 23 25 26 26 24 23
2 4 7 11 12 13 13 12 12 16 20 23 23 20 19 22 18 15 22 25 21 15 11 14 15 13 9 6 7 10 11 10 7 4 2 3 3 5 8 8 10 12 8 2 4 8 5 4 4 2 3 4 3 2 2 3 3 2 1 2 4 5 7 4 1 2 1 5 8 10 11 16 19 18 21 22 13 12 18 19 19 20 21 25 24 21 20 20
4 6 9 13 13 15 14 13 17 19 19 19 17 14 14 16 11 11 21 24 23 22 20 18 17 16 12 7 5 5 8 12 11 8 4 2 2 2 6 6 6 9 7 2 1 2 2 4 4 2 3 3 2 1 1 2 3 2 1 3 4 4 7 4 1 1 1 3 6 5 9 15 18 18 21 22 14 14 19 18 18 18 17 21 20 19 19 18
6 7 11 15 15 16 15 16 20 14 8 11 12 12 16 18 18 21 22 17 16 21 21 19 18 17 14 12 9 8 10 13 13 12 9 7 6 5 7 8 6 5 3 2 0 1 3 4 2 2 0 1 2 2 2 3 3 2 1 3 4 2 5 5 2 2 1 3 6 5 9 15 18 20 21 21 18 17 18 17 17 16 14 17 18 19 20 19
8 9 12 16 17 17 16 19 19 8 8 17 20 21 22 22 21 21 19 13 12 16 18 18 19 17 14 13 11 11 14 12 11 14 12 11 14 12 10 9 6 3 3 3 2 2 4 3 1 2 3 1 2 2 2 4 3 3 2 3 5 3 3 4 2 2 2 4 7 8 11 14 16 16 15 15 15 14 14 16 17 17 16 18 20 21 21 20
10 11 13 17 18 18 18 18 16 11 16 22 21 20 18 15 12 11 10 8 7 11 14 14 18 19 15 12 10 12 16 14 12 14 13 10 10 9 8 6 4 4 4 6 5 4 4 3 3 4 2 1 1 1 2 4 2 2 4 4 6 4 4 6 4 6 5 5 3 7 10 9 6 5 4 2 5 8 9 10 13 16 18 20 21 21 21 22
11 14 14 17 20 18 18 17 15 15 17 15 14 14 13 11 8 4 2 3 4 7 11 10 12 17 16 12 8 7 11 13 15 16 13 11 7 4 5 4 3 2 1 4 3 4 3 2 2 2 0 1 3 2 1 4 3 1 4 4 6 7 7 8 7 7 6 3 2 3 8 5 1 4 4 1 1 5 3 4 10 14 17 21 23 22 20 21
13 16 17 19 22 20 19 17 16 16 12 8 7 6 8 12 14 9 2 2 3 6 10 8 8 11 14 14 9 2 4 7 13 15 13 11 8 2 3 3 3 2 1 1 1 2 2 2 1 1 1 2 4 3 2 3 3 1 1 0 3 4 6 8 6 4 4 4 1 1 5 7 6 8 5 2 4 6 2 4 9 12 13 16 18 19 19 21
15 18 19 20 23 21 19 17 16 16 10 6 7 5 5 10 16 14 3 2 4 5 7 8 8 9 11 14 12 2 1 4 6 11 13 11 9 4 2 2 2 3 1 1 0 1 2 2 2 0 1 3 4 3 3 2 2 1 1 1 1 3 6 5 4 5 4 6 2 3 3 6 8 6 1 3 6 7 4 3 5 6 8 12 15 17 19 21
16 18 20 21 21 20 18 15 15 16 10 5 6 10 10 11 16 12 1 3 4 4 4 7 7 8 8 11 16 9 4 5 3 7 11 9 8 5 3 2 1 3 2 1 2 1 2 2 2 2 2 3 2 1 2 4 2 3 2 2 2 3 5 3 3 4 2 5 4 4 3 4 7 5 2 0 5 5 4 2 1 4 9 14 17 18 20 22
18 18 20 20 20 19 17 12 12 14 12 8 7 9 10 12 13 5 3 3 3 3 4 7 6 10 10 6 13 14 8 7 5 6 9 8 7 4 4 4 4 5 2 1 1 0 0 0 0 2 2 1 1 2 2 4 2 2 1 2 1 2 2 2 3 3 2 4 4 2 1 4 7 6 1 1 2 3 3 2 2 7 12 16 20 20 19 21
19 18 19 20 19 18 16 11 10 12 12 11 8 6 7 10 6 1 4 2 2 4 6 6 6 11 13 4 6 13 8 7 9 7 8 9 8 7 6 4 4 3 1 1 2 1 1 1 1 2 1 2 2 1 1 1 2 2 2 4 4 4 2 2 2 2 3 4 2 3 1 4 6 7 4 2 0 0 2 3 4 7 12 15 17 19 19 19
19 19 18 18 18 17 15 10 9 11 11 11 7 5 6 5 1 3 4 1 1 4 5 4 4 7 9 3 2 9 6 6 13 10 7 8 8 9 6 2 3 0 1 1 1 1 0 1 1 1 0 2 2 1 1 1 1 1 3 4 4 3 3 2 2 2 3 3 2 2 3 4 5 6 3 2 3 2 3 5 5 6 11 14 14 15 16 18
17 18 18 18 17 16 14 9 7 8 10 10 8 6 4 1 3 3 1 2 1 3 2 1 3 4 5 2 2 7 4 4 10 8 4 4 4 6 6 4 4 2 1 2 2 2 0 2 1 1 1 2 3 3 1 2 1 2 4 4 5 4 1 2 2 2 4 2 3 1 4 4 8 10 8 9 12 8 6 8 9 9 13 16 15 15 16 18
14 16 17 17 17 16 14 11 7 7 8 8 7 3 2 3 4 1 2 3 2 2 1 2 3 3 4 3 3 5 2 1 6 5 1 1 2 3 3 3 3 2 2 3 3 5 2 3 1 0 1 3 3 4 2 1 1 3 4 4 5 5 3 4 3 3 5 2 3 1 3 5 8 8 8 10 12 8 8 12 14 14 16 18 17 16 19 22
12 13 13 14 14 13 13 11 7 6 5 4 4 1 5 5 2 1 2 1 1 2 2 2 4 2 1 2 3 4 1 1 4 3 2 2 2 2 2 3 4 2 2 1 1 3 3 1 1 0 1 2 1 2 3 3 3 2 2 3 3 3 3 5 3 4 7 5 1 1 1 5 4 3 4 8 9 11 15 18 18 17 18 18 18 16 20 27
9 11 10 11 10 9 9 7 4 4 6 4 2 3 5 3 2 2 0 1 1 2 1 1 3 2 1 2 2 2 1 1 3 3 3 3 2 2 2 3 5 3 2 2 1 0 3 2 1 2 1 1 1 1 0 3 3 1 0 2 3 2 2 4 2 2 4 5 3 3 3 6 4 7 10 8 7 11 15 16 16 18 18 18 20 19 23 30
9 9 9 10 9 8 8 7 5 7 7 2 4 5 3 1 1 1 1 2 2 3 3 1 2 2 2 2 1 2 1 0 3 3 2 2 1 1 1 1 2 2 2 2 1 0 3 3 1 1 1 1 0 1 1 2 2 1 2 2 1 1 3 4 2 1 1 4 4 2 4 6 4 7 7 4 5 6 6 8 9 12 14 18 23 25 27 33
11 11 11 10 9 9 9 7 6 8 5 3 5 4 0 0 1 2 3 3 1 2 3 1 2 3 2 2 3 4 2 1 1 2 1 1 1 1 1 1 1 1 2 2 1 0 3 5 1 1 2 1 1 1 1 1 3 2 2 1 1 1 2 2 3 2 3 6 4 2 6 8 5 5 3 5 7 7 8 8 6 9 16 20 23 26 30 35
14 16 15 11 9 9 8 7 6 6 7 8 6 4 1 1 1 1 2 2 1 1 2 2 1 1 0 1 2 4 5 3 2 2 1 1 1 2 1 0 2 1 2 1 1 1 2 6 2 1 2 1 1 3 2 1 1 4 3 1 1 3 3 2 2 3 4 6 5 4 7 6 4 4 3 7 11 13 14 12 8 12 18 19 19 25 32 35
8 13 16 13 9 9 6 7 6 5 9 8 3 2 2 1 0 1 1 1 1 1 1 1 0 0 2 1 1 2 3 3 3 2 1 1 2 2 1 1 1 1 1 1 1 1 1 4 2 2 1 2 1 3 2 1 1 1 2 0 1 2 4 2 1 2 4 6 6 4 6 6 4 4 2 9 13 15 16 14 12 15 19 19 18 24 31 34
6 8 13 12 11 11 8 8 10 11 9 4 1 2 1 1 1 0 2 2 1 1 1 2 1 0 1 1 1 1 2 2 2 2 1 2 1 2 3 2 1 1 0 1 1 1 1 2 4 1 1 4 2 1 1 1 1 2 3 2 2 2 2 3 2 1 2 5 5 3 5 9 5 2 2 11 15 15 14 12 13 17 22 22 21 25 31 33
10 8 9 10 10 10 12 14 14 12 5 1 2 2 1 0 1 1 3 3 2 3 2 1 1 2 1 2 1 1 2 2 1 1 1 1 1 2 3 1 1 1 1 1 1 1 1 1 5 5 4 6 4 1 1 2 1 3 4 3 3 3 2 5 5 0 1 3 4 3 6 10 7 0 3 12 13 13 13 10 12 19 25 25 25 29 31 32
15 8 8 13 13 12 17 16 10 6 3 2 3 3 2 1 2 3 3 4 3 3 3 2 2 2 1 2 1 0 2 1 1 1 1 0 1 1 2 1 1 1 1 1 1 1 1 2 4 6 7 6 3 2 1 2 2 3 4 2 1 1 2 6 6 2 1 2 1 2 5 10 10 3 4 10 10 12 15 13 13 19 24 25 27 30 32 35
22 13 9 13 15 16 20 12 4 4 5 3 3 4 3 2 2 2 3 4 3 2 2 2 1 2 1 1 1 1 1 1 1 1 1 2 2 2 2 1 1 0 1 1 1 1 0 2 3 6 7 3 2 3 3 1 1 3 4 3 2 2 0 3 4 2 3 5 4 4 5 9 11 5 5 12 15 17 19 17 15 18 22 24 26 27 32 41
29 24 18 10 7 12 14 5 1 3 2 2 4 4 4 4 4 3 2 4 3 1 1 1 1 2 1 1 0 0 1 1 0 1 1 1 1 1 2 1 0 1 0 0 1 1 1 1 2 6 7 3 1 1 0 1 2 4 4 3 3 1 3 1 2 1 4 8 9 9 8 9 12 9 11 18 20 18 19 19 18 17 19 22 25 30 38 46
20 20 24 20 15 18 15 7 6 5 2 2 4 3 2 3 5 6 3 3 4 2 1 1 1 1 1 0 1 0 1 2 1 0 1 2 2 1 2 1 1 1 1 1 0 1 2 2 2 4 6 6 6 6 6 4 3 5 5 2 2 3 3 2 4 4 6 7 6 8 9 11 14 16 19 20 18 16 18 21 21 19 19 22 27 35 43 46
8 6 11 18 23 27 22 13 10 7 2 2 3 2 2 1 3 6 4 3 5 4 3 2 1 1 0 0 1 1 0 1 1 1 2 2 2 1 1 1 1 2 1 1 2 1 1 2 4 6 7 6 7 10 9 6 7 11 13 9 1 5 4 3 3 6 7 4 5 11 14 14 17 18 18 19 18 17 17 20 23 24 25 29 34 39 43 43
7 3 3 6 14 20 19 16 13 8 2 1 2 2 3 1 1 4 4 3 4 4 2 2 1 1 1 2 2 1 1 1 1 1 3 3 2 2 2 1 1 2 1 1 1 1 1 3 4 5 10 10 11 15 14 10 11 15 17 14 5 5 5 5 9 11 7 3 8 14 15 14 15 16 18 19 18 16 17 20 23 25 29 36 39 40 41 42
8 6 6 6 5 5 7 11 14 13 9 5 2 1 3 3 2 3 3 3 4 5 3 2 3 4 1 1 2 2 3 2 2 2 2 1 2 3 2 1 1 0 1 0 1 0 2 4 1 2 8 12 12 15 17 14 13 12 13 15 12 6 7 10 16 17 9 7 12 15 16 16 15 16 19 19 18 19 19 20 21 26 33 37 36 36 37 40
14 11 11 11 9 5 5 5 9 13 12 7 3 2 4 4 4 2 2 3 2 4 5 2 4 4 0 1 1 2 2 2 4 3 1 1 2 2 2 0 1 1 2 1 1 1 2 3 1 2 7 12 14 13 12 12 9 9 12 14 14 14 11 12 18 18 14 15 19 19 20 18 17 17 18 20 22 23 20 18 21 27 32 33 31 32 34 37
16 14 15 19 16 10 8 6 6 8 7 6 4 2 2 2 3 2 2 3 2 3 5 5 6 4 0 1 1 3 2 2 5 5 1 1 2 1 1 1 0 1 1 1 1 1 3 1 1 0 5 10 12 8 7 7 6 9 16 16 14 16 12 11 14 13 12 14 16 17 16 15 16 17 16 18 21 20 19 20 23 27 30 30 29 30 32 36
23 21 21 21 11 8 9 7 5 4 3 5 4 1 2 3 2 2 1 2 3 3 4 5 6 3 1 2 2 4 5 5 8 9 6 5 5 3 2 1 2 2 1 0 1 0 2 2 1 2 5 9 7 5 9 10 7 10 14 15 13 10 7 8 9 7 7 7 8 8 9 9 11 10 11 17 20 21 22 22 22 24 29 30 28 29 32 35
23 20 20 20 10 7 8 6 5 4 2 2 3 2 2 3 3 1 1 1 3 3 5 6 5 3 1 3 4 6 10 12 14 16 14 12 11 10 10 8 6 4 2 1 1 1 1 3 1 1 4 8 6 7 11 13 10 7 5 7 8 7 9 11 9 7 9 7 4 6 8 11 12 12 13 15 18 20 22 21 22 25 27 27 27 30 34 37
Wind_Direction
119 118 120 119 106 104 106 117 117 106 104 100 96 99 114 151 174 188 192 189 293 337 343 331 316 340 341 313 326 70 70 47 37 110 109 92 105 120 126 128 141 149 150 159 166 168 159 145 150 156 123 54 51 58 48 49 56 64 186 162 137 164 176 171 176 171 108 160 166 173 187 197 192 197 208 214 223 228 234 231 228 227 227 232 234 225 223 230
119 117 118 114 107 110 110 122 121 111 110 105 102 104 110 159 198 219 226 245 295 310 314 312 300 318 325 278 194 122 96 77 66 83 86 88 115 123 119 120 122 133 138 140 158 172 163 152 159 167 111 68 55 52 49 41 41 44 269 107 134 144 111 159 170 164 189 168 166 174 187 200 201 188 199 215 223 220 232 236 228 233 234 234 234 228 229 234
120 118 118 115 117 120 122 127 124 119 116 109 105 97 107 201 235 249 260 275 295 299 299 302 303 314 309 226 171 129 98 98 72 53 68 97 121 123 115 112 105 111 106 92 125 162 170 169 164 164 113 80 52 64 55 28 36 32 344 118 124 103 81 158 178 175 234 172 163 172 185 202 214 190 195 218 227 215 224 229 218 226 233 232 233 231 230 235
120 122 121 121 126 126 129 130 128 126 117 105 96 83 111 243 264 271 280 284 294 294 295 307 313 315 279 178 150 129 101 88 51 32 56 101 120 126 114 109 102 101 93 88 102 144 174 178 160 147 110 81 40 70 43 13 43 34 4 82 111 142 132 163 193 203 236 189 169 164 174 203 223 201 200 216 233 223 225 229 222 227 232 229 233 233 230 236
128 126 123 122 121 123 126 129 130 125 113 105 97 95 97 307 290 290 288 286 290 289 308 320 328 340 152 146 134 128 105 74 37 29 63 95 118 125 112 109 98 102 106 109 107 124 172 179 164 133 94 72 18 71 40 25 75 65 21 39 84 153 145 153 191 213 196 176 166 159 170 202 213 208 214 216 230 232 227 234 234 239 241 234 236 238 234 237
129 126 123 121 119 120 123 124 124 117 111 107 101 102 74 37 358 334 315 322 292 284 354 352 35 95 131 130 124 121 98 63 29 36 70 86 113 117 109 104 88 100 111 131 137 139 166 180 182 121 79 61 26 56 38 14 83 86 90 38 64 198 131 147 188 201 166 161 164 171 187 202 201 218 228 225 234 242 243 249 246 246 248 241 240 240 238 240
127 125 124 122 120 121 122 120 117 110 106 101 101 97 80 59 35 20 2 18 100 114 89 94 97 104 114 111 113 102 84 60 39 50 69 83 106 107 102 89 72 81 81 115 173 192 177 193 173 117 93 81 64 70 63 60 72 95 116 117 115 90 123 152 182 172 154 165 177 183 209 210 208 231 243 236 242 247 252 258 256 255 253 241 235 238 242 245
126 126 126 124 125 123 121 119 112 104 97 101 109 99 81 65 55 50 54 100 128 130 127 116 111 113 110 111 111 86 59 35 41 63 67 76 93 92 83 67 51 49 37 24 80 166 184 195 160 123 84 80 101 101 89 89 70 70 114 139 134 91 115 139 139 154 154 182 191 195 226 227 227 245 262 255 256 260 261 261 257 257 256 242 236 240 244 248
128 128 129 128 129 127 124 122 110 97 98 114 114 101 87 75 66 59 59 80 126 149 134 111 125 127 118 123 109 75 36 17 37 58 65 75 83 75 65 60 52 35 0 335 46 147 174 175 163 150 120 109 110 113 278 205 68 75 121 134 129 108 115 128 127 145 157 184 199 224 243 243 245 257 266 264 268 269 266 263 257 252 252 248 242 244 247 249
135 135 136 135 136 134 131 127 107 98 113 123 118 102 93 79 67 63 56 50 68 151 140 95 131 129 122 122 98 74 31 28 33 36 55 65 62 53 56 62 48 28 356 302 240 188 187 175 157 143 125 107 90 68 4 343 112 114 121 112 108 115 122 139 143 144 160 178 212 245 263 259 239 250 260 261 263 253 258 263 259 250 249 252 250 250 251 251
147 146 147 149 149 145 143 136 108 112 125 127 118 103 91 75 66 72 67 50 59 103 119 96 111 125 129 100 83 70 42 45 44 40 42 24 22 35 61 66 49 33 10 8 135 125 139 146 138 129 112 104 93 71 72 103 114 120 125 105 96 117 130 153 158 140 168 191 235 257 278 263 201 209 249 253 252 252 265 268 265 259 253 255 255 256 256 255
151 153 159 159 154 153 151 135 120 127 133 126 114 96 81 76 77 79 76 66 77 93 99 100 101 111 110 83 69 65 53 53 54 54 57 48 72 91 81 68 46 37 28 88 113 107 118 141 150 135 112 121 115 84 104 114 114 128 140 111 113 149 153 158 157 133 210 241 294 285 281 250 190 219 248 253 256 259 266 265 262 260 259 259 258 258 259 260
133 131 140 147 146 147 142 134 132 137 135 123 104 88 84 85 88 86 80 97 112 103 97 102 104 106 93 71 62 69 60 55 57 61 67 73 81 83 74 61 42 47 46 100 100 84 82 116 163 133 117 120 116 116 122 116 111 124 222 47 142 189 175 150 139 173 227 230 256 295 283 260 200 224 245 251 251 256 261 263 263 261 261 261 260 261 262 263
95 82 77 111 140 137 134 134 138 145 139 117 91 82 81 86 104 105 88 97 113 98 86 97 108 106 88 80 74 72 67 63 63 63 68 75 81 81 78 79 79 79 83 88 85 80 82 101 127 115 102 100 110 118 114 94 75 102 279 270 127 255 164 135 160 201 218 199 168 265 269 276 265 238 237 246 250 255 261 263 263 264 267 267 266 266 266 267
82 68 60 104 141 134 127 132 141 153 149 117 78 71 70 95 118 111 89 92 88 78 87 92 102 104 91 86 80 72 70 70 65 62 68 79 86 87 86 84 83 81 82 83 81 84 93 108 105 92 86 96 108 121 113 99 60 28 260 179 140 265 191 142 165 210 242 173 174 239 266 276 284 283 259 251 249 247 255 260 262 265 271 273 271 270 270 271
76 59 60 111 140 130 121 128 139 151 153 124 86 85 90 106 124 118 102 100 87 79 88 87 87 94 91 82 76 73 67 65 63 62 70 85 90 88 85 81 78 76 78 80 83 90 106 108 88 78 81 88 85 46 113 143 137 64 303 286 176 256 286 176 145 161 292 220 207 231 266 284 280 300 301 258 241 237 248 259 265 269 274 277 276 273 272 273
72 49 66 113 136 128 121 126 134 143 143 126 107 107 112 111 113 113 107 105 100 87 83 89 87 78 76 77 72 63 60 58 58 64 72 90 95 85 84 83 67 69 87 83 87 90 88 85 78 72 64 61 7 313 188 221 205 141 289 263 201 240 271 279 157 116 217 225 234 227 243 266 265 270 273 261 248 250 259 266 271 274 276 278 279 278 277 277
70 55 92 123 135 129 126 130 133 137 130 126 124 122 122 120 120 117 112 119 120 98 57 73 86 69 63 67 65 60 65 66 67 72 76 95 101 77 70 69 34 127 121 80 61 58 63 66 71 83 53 44 31 9 321 317 345 334 319 281 287 240 235 274 268 97 113 222 242 240 242 261 267 267 267 261 250 250 260 266 271 273 272 273 275 279 281 281
82 94 118 139 142 133 135 133 129 129 122 123 124 122 118 111 110 105 100 104 99 79 27 42 56 101 98 78 73 71 70 72 68 65 93 114 105 62 52 58 77 111 115 63 33 35 49 64 57 66 37 12 13 13 331 333 330 327 359 306 299 293 263 271 278 73 336 260 251 245 247 263 270 271 271 267 245 240 258 263 265 267 269 272 274 277 280 280
136 117 133 150 147 141 142 135 130 128 123 122 121 121 115 100 92 84 81 81 79 82 89 75 77 98 110 104 85 71 63 64 63 59 108 143 114 61 52 65 78 75 67 25 19 31 45 78 58 24 334 330 331 338 304 309 297 278 326 302 293 290 285 286 105 108 193 275 264 248 254 265 270 271 272 272 255 241 257 256 256 258 263 271 273 274 276 280
155 128 142 157 152 146 144 137 137 131 123 130 129 126 120 101 95 98 86 81 79 81 81 78 80 84 84 85 79 78 73 67 66 65 68 122 145 34 31 50 66 59 43 357 3 17 24 65 50 350 298 300 330 70 225 259 288 295 298 314 305 273 283 286 137 116 159 258 269 268 277 271 269 270 269 270 258 246 250 246 249 253 257 268 269 270 275 281
151 132 145 159 156 149 144 142 146 136 119 144 141 124 115 102 101 104 98 90 79 75 71 69 70 68 69 71 69 81 79 62 54 55 58 75 84 68 50 53 61 57 19 340 73 76 59 55 22 356 200 157 88 106 222 251 264 291 324 304 302 302 293 278 133 71 135 236 281 317 304 280 272 269 264 263 253 247 246 239 245 249 252 264 267 271 277 282
145 132 146 160 157 152 148 147 153 144 109 126 122 113 110 104 103 99 96 99 80 61 56 56 54 50 53 55 52 64 67 53 31 32 43 69 75 66 59 55 59 67 13 5 50 77 76 65 69 151 161 118 71 135 234 262 245 255 284 294 299 356 324 275 68 31 218 233 293 316 304 282 273 267 260 260 253 247 245 240 242 248 254 262 264 268 274 277
144 133 146 157 155 155 153 151 157 141 120 120 110 106 106 101 107 106 94 99 86 47 37 40 37 33 32 28 33 56 63 55 29 21 29 52 62 52 54 50 45 70 27 12 45 79 79 56 94 142 161 351 298 221 242 268 267 244 232 252 286 311 292 271 326 332 265 224 270 302 292 275 274 286 279 263 240 240 247 250 251 254 259 259 256 261 269 274
146 135 142 153 154 157 155 157 162 145 132 125 105 98 93 73 64 78 98 105 86 24 17 26 25 23 19 11 18 54 64 52 30 21 24 31 36 53 72 47 20 71 4 343 49 87 72 54 110 153 169 346 277 281 265 264 298 291 213 227 278 298 292 281 309 325 286 232 172 309 300 285 304 297 284 19 279 252 236 250 263 260 258 257 256 260 269 276
151 140 139 150 155 157 158 164 166 156 153 157 137 100 61 40 25 16 0 116 61 356 1 14 13 15 14 8 5 21 79 44 21 20 27 30 31 75 97 42 31 81 169 297 69 99 69 81 112 332 307 265 276 272 221 242 300 322 164 269 296 293 283 282 296 292 284 300 179 189 292 289 298 290 282 357 317 284 261 236 252 255 262 272 275 274 276 281
154 147 146 153 158 160 164 170 172 172 181 201 209 248 320 356 2 359 338 100 41 349 356 6 7 11 9 10 14 30 119 6 358 14 25 31 29 45 86 24 40 74 93 227 17 120 141 140 153 145 243 248 273 269 188 198 282 315 58 4 300 263 265 271 277 250 280 326 293 177 238 275 289 289 307 14 306 288 281 239 231 251 285 306 308 301 301 303
157 155 155 157 161 166 170 174 181 190 203 222 249 268 280 312 339 345 48 94 10 342 0 355 355 1 358 18 32 55 67 11 359 3 10 20 20 34 70 35 87 87 57 268 331 68 168 212 204 204 230 241 275 351 149 182 266 349 36 303 266 264 266 249 260 257 277 317 276 169 174 267 277 265 150 58 290 285 290 285 275 300 312 316 315 314 317 322
160 162 162 164 168 173 179 184 196 208 219 241 278 283 280 308 324 329 100 82 341 337 346 340 344 350 347 7 32 39 44 31 29 3 10 23 15 40 98 84 110 118 72 332 293 1 156 320 212 227 248 293 350 44 150 194 268 359 76 276 226 191 246 212 249 273 251 278 271 157 170 277 287 288 237 167 268 275 271 283 309 314 320 320 320 322 322 324
166 167 167 172 176 181 191 203 217 222 229 246 274 294 299 320 321 90 68 44 332 343 330 342 353 344 349 1 24 22 28 25 12 2 27 41 33 55 94 91 90 122 90 33 226 229 19 14 291 248 270 345 355 50 157 244 332 349 239 267 242 200 197 184 217 260 254 256 220 102 1 295 294 296 276 214 269 175 254 281 299 309 315 317 323 325 321 318
172 174 174 179 183 189 200 215 227 229 236 243 259 307 315 329 11 106 62 23 299 350 335 356 359 345 3 27 3 4 4 11 8 7 25 32 28 35 46 37 19 4 217 347 220 222 269 199 199 254 294 0 331 228 127 73 24 304 264 282 279 239 197 201 191 186 253 272 137 117 303 274 257 270 271 297 302 257 222 265 276 286 292 296 309 317 314 312
169 178 182 186 191 195 201 216 235 238 246 247 257 306 312 1 47 70 26 306 321 13 8 348 346 2 6 347 2 360 341 356 10 18 20 3 23 28 21 10 353 338 17 13 325 319 219 161 52 11 74 31 321 278 175 137 160 258 275 294 301 307 298 256 261 212 260 291 122 168 291 256 244 260 269 282 282 262 216 231 252 266 273 280 292 305 311 313
161 176 184 190 198 202 209 225 249 253 253 251 250 297 45 89 51 58 263 316 14 19 353 301 313 325 312 319 21 356 309 343 2 11 5 319 48 55 44 27 339 315 357 0 330 334 13 123 58 317 101 33 330 307 312 278 297 299 307 326 315 322 330 294 295 287 282 292 134 158 309 264 258 266 253 253 266 264 239 245 257 262 266 274 281 297 317 325
152 166 181 193 199 209 221 229 246 252 234 215 211 75 61 72 66 260 268 319 13 338 331 301 310 312 319 21 14 333 290 81 359 351 331 336 44 53 61 43 11 342 298 315 5 346 337 353 30 91 337 357 325 315 334 305 306 331 354 331 299 298 301 292 308 303 298 310 257 187 253 243 253 329 278 250 261 268 261 260 262 257 258 268 275 292 325 335
139 156 175 188 192 202 209 206 206 183 164 146 103 65 67 81 218 228 262 289 307 322 302 295 319 309 60 38 18 356 1 34 11 0 357 4 28 20 17 16 8 359 293 320 33 345 287 286 53 74 304 321 224 168 57 287 278 112 129 273 278 305 295 280 301 304 302 314 277 214 231 242 258 306 296 286 283 270 261 260 261 258 264 282 289 300 325 333
104 134 147 163 167 163 164 162 151 153 161 144 58 63 75 104 236 214 30 325 331 338 300 304 7 354 8 358 23 45 36 311 352 349 26 34 354 337 316 292 353 354 350 353 328 253 293 283 80 101 201 121 77 170 143 292 296 157 242 272 320 340 291 265 274 118 196 275 271 228 262 270 290 295 288 323 323 296 289 282 270 275 297 317 317 317 325 328
80 105 116 134 142 145 154 146 142 159 149 77 75 79 51 101 27 3 3 347 335 334 313 349 25 358 0 335 334 352 330 266 333 339 50 39 224 159 232 243 153 327 338 326 270 11 299 284 286 200 226 112 70 240 151 292 306 287 277 350 60 267 265 252 279 265 236 262 267 255 276 283 307 302 312 10 345 334 334 313 283 304 328 335 328 324 325 326
73 82 86 95 118 138 148 134 142 156 103 75 85 88 56 22 28 331 345 2 285 304 2 51 33 343 304 328 328 319 318 333 357 354 11 350 54 128 186 3 108 57 13 304 285 43 284 282 293 154 257 358 104 247 237 148 300 301 307 13 350 268 253 208 260 288 282 279 273 273 286 279 246 245 303 347 344 341 333 320 315 325 333 334 325 324 328 330
71 67 60 62 96 111 115 133 143 117 82 69 71 89 69 311 231 229 329 5 223 213 52 112 169 242 208 250 302 302 326 348 345 346 22 8 24 113 113 15 64 102 69 6 315 356 274 290 306 143 221 304 211 215 244 140 124 273 264 234 22 282 273 268 288 297 279 273 276 296 309 294 242 198 286 327 334 335 329 324 325 325 326 326 320 323 328 331
88 69 50 55 86 85 86 119 100 72 70 71 93 117 166 252 195 205 357 353 258 332 20 202 218 329 239 285 318 327 352 352 325 340 16 11 12 76 62 20 354 104 48 15 355 294 270 263 281 270 213 279 297 149 308 315 206 226 236 233 232 226 266 293 275 257 284 275 277 286 286 287 283 168 308 318 323 327 328 326 321 319 320 321 321 324 327 328
94 80 40 54 85 89 92 93 72 60 72 104 85 110 187 4 70 44 0 353 5 16 26 99 39 21 351 349 4 327 332 339 351 332 341 26 29 39 44 32 8 38 274 210 114 300 322 232 277 307 305 297 318 52 10 330 289 280 269 258 265 251 266 283 265 178 20 284 278 288 279 281 286 28 320 310 316 325 332 328 313 313 316 317 321 325 326 324
84 75 39 65 89 105 98 81 43 40 86 79 69 79 92 65 43 42 12 1 18 20 37 67 36 31 32 347 357 2 323 315 356 343 312 11 270 301 30 54 42 23 273 295 65 71 357 280 274 284 279 291 347 82 72 328 306 279 264 256 321 291 251 272 280 329 356 258 258 291 268 272 280 302 298 293 309 323 320 311 303 308 311 313 318 323 325 325
70 65 61 84 97 98 93 80 14 39 66 71 88 73 69 71 42 36 20 13 15 359 30 66 10 23 55 326 324 7 336 266 261 339 304 258 259 297 339 347 334 335 255 297 90 115 316 274 274 282 274 264 123 140 151 147 193 244 244 209 204 237 164 278 289 342 299 274 271 263 252 270 284 293 278 289 304 311 310 308 302 304 309 313 317 320 326 328
72 64 58 69 113 100 87 87 118 78 73 133 102 63 58 68 46 32 23 20 23 15 45 65 18 29 41 341 24 3 341 348 3 36 349 248 249 321 329 312 106 56 3 305 6 349 279 237 295 307 309 321 325 270 200 214 233 251 249 187 176 189 79 101 233 177 256 266 266 265 261 267 280 292 296 298 304 307 309 309 304 305 312 318 322 326 329 330
79 65 56 57 85 97 90 101 124 117 144 124 88 35 41 67 39 34 47 40 35 37 59 51 1 29 46 202 144 66 339 356 10 25 330 266 245 273 322 286 156 120 298 262 156 301 295 292 286 298 317 328 322 318 319 313 306 284 265 223 155 169 161 228 259 248 245 243 240 254 262 268 279 292 296 297 303 307 306 308 314 322 324 322 325 329 330 329
87 72 52 52 68 79 79 84 101 112 138 111 85 22 22 75 26 28 43 51 37 36 51 45 306 280 37 352 340 339 327 349 1 334 289 261 259 337 347 294 193 177 257 224 177 205 320 272 248 247 261 273 281 287 295 310 305 290 287 290 244 161 191 236 254 251 249 239 242 251 257 268 278 287 293 298 306 309 306 316 329 335 332 330 329 329 329 327
81 64 23 43 59 63 63 58 61 78 96 69 84 18 7 0 340 20 36 38 29 28 49 67 33 7 347 352 351 311 298 305 216 256 261 249 283 309 298 321 262 222 187 146 197 185 299 263 251 241 246 250 264 276 284 291 281 276 284 291 279 166 178 205 228 243 247 258 265 258 257 268 279 286 294 299 304 308 312 325 335 335 332 331 329 328 329 328
86 81 62 77 70 39 45 46 51 63 59 52 90 50 7 16 22 28 17 8 21 26 29 71 56 42 351 315 341 301 315 313 241 244 270 265 336 325 308 61 72 209 102 160 219 145 282 271 244 226 260 266 268 268 271 274 270 268 274 282 281 249 194 209 241 250 243 240 257 263 270 279 285 288 291 293 299 307 313 322 334 335 331 328 327 327 328 328
102 97 71 78 88 81 85 68 58 64 56 44 69 52 23 34 39 31 337 339 18 21 14 12 12 16 20 207 295 302 329 323 288 287 277 278 315 311 300 321 119 66 47 304 270 214 245 251 204 246 279 284 279 268 259 258 268 283 275 267 270 264 236 226 247 254 251 249 257 267 277 283 283 281 282 287 296 302 307 321 337 334 327 324 324 326 327 328
107 107 98 95 87 68 66 58 52 66 46 25 49 46 20 43 31 12 354 9 22 6 7 359 344 348 308 204 249 263 273 275 273 270 229 351 337 311 305 331 20 28 16 334 5 205 228 241 65 352 288 287 283 275 258 246 246 277 282 276 270 267 259 246 248 255 256 253 259 270 277 277 273 272 278 290 298 304 313 330 337 330 322 322 323 326 328 328
104 110 111 103 79 26 42 48 37 70 44 17 35 16 20 48 11 331 347 46 55 17 350 337 328 326 270 255 248 258 282 276 266 270 271 277 277 263 273 325 0 354 346 3 8 246 242 266 58 26 302 286 282 291 296 292 272 261 272 276 266 257 256 250 239 225 219 238 268 274 266 272 280 289 304 308 308 312 319 329 331 323 322 325 326 327 328 327
103 110 109 101 86 13 29 36 22 59 80 359 15 3 13 29 0 315 208 56 46 15 346 331 318 311 275 270 278 297 305 298 286 284 281 272 264 263 266 268 269 268 246 153 337 289 238 269 292 15 294 283 298 313 310 309 301 280 256 253 257 274 285 274 259 225 198 205 258 261 257 285 307 318 317 311 308 310 317 324 323 319 324 330 329 328 328 329